User: anonymous   Login
Location: Unspecified
(0.0000°N, 0.0000°E)
Time: 09:31:02
(UTC+00:00)
Language:

SMS 1 - Orbit

View from above orbital plane
View from above orbital plane
View from above satellite
View from above satellite

Ground track
Ground track

The orbit data is extracted from the following two-line orbital elements,

1  7298U 74033A   17327.28243598 -.00000229 +00000-0 +00000-0 0  9998
2  7298 011.7327 304.1802 0021253 336.0895 024.2390 00.98614282089045
Epoch (UTC): 23 November 2017 06:46:42
Eccentricity: 0.0021253
inclination: 11.7327°
perigee height: 36167 km
apogee height: 36348 km
right ascension of ascending node: 304.1802°
argument of perigee: 336.0895°
revolutions per day: 0.98614282
mean anomaly at epoch: 24.2390°
orbit number at epoch: 8904

The dashed part of the orbit path shows where the satellite is in the earth's shadow,  

DLR